EN

Hourly Weather Alto Lucero

Today, 25 January, Monday

Time Temperature Precipitation Wind Pressure Humidity
00:00 +20°C° 0 mm 1 mps 689 mmHg 80%
01:00 +19°C° 0 mm 2 mps 689 mmHg 78%
02:00 +18°C° 0 mm 2 mps 689 mmHg 77%
03:00 +18°C° 0 mm 2 mps 688 mmHg 76%
04:00 +18°C° 0 mm 2 mps 688 mmHg 73%
05:00 +18°C° 0 mm 2 mps 688 mmHg 71%
06:00 +18°C° 0 mm 2 mps 689 mmHg 69%
07:00 +21°C° 0 mm 1 mps 689 mmHg 66%
08:00 +22°C° 0 mm 1 mps 689 mmHg 63%
09:00 +24°C° 0 mm 1 mps 690 mmHg 60%
10:00 +26°C° 0 mm 1 mps 690 mmHg 56%
11:00 +28°C° 0 mm 1 mps 690 mmHg 52%
12:00 +29°C° 0 mm 1 mps 690 mmHg 48%
13:00 +29°C° 0 mm 1 mps 690 mmHg 49%
14:00 +30°C° 0 mm 1 mps 689 mmHg 50%
15:00 +30°C° 0 mm 2 mps 688 mmHg 50%
16:00 +28°C° 0 mm 1 mps 688 mmHg 60%
17:00 +26°C° 0 mm 1 mps 688 mmHg 69%
18:00 +24°C° 0 mm 1 mps 687 mmHg 79%
19:00 +24°C° 0 mm 1 mps 688 mmHg 75%
20:00 +23°C° 0 mm 1 mps 688 mmHg 72%
21:00 +21°C° 0 mm 2 mps 688 mmHg 69%
22:00 +21°C° 0 mm 2 mps 688 mmHg 65%
23:00 +21°C° 0 mm 2 mps 688 mmHg 62%

Tomorrow, 26 January, Tuesday

Time Temperature Precipitation Wind Pressure Humidity
00:00 +21°C° 0 mm 2 mps 688 mmHg 58%
01:00 +21°C° 0 mm 2 mps 688 mmHg 56%
02:00 +21°C° 0 mm 2 mps 687 mmHg 55%
03:00 +21°C° 0 mm 2 mps 687 mmHg 53%
04:00 +21°C° 0 mm 2 mps 687 mmHg 53%
05:00 +21°C° 0 mm 2 mps 687 mmHg 53%
06:00 +21°C° 0 mm 2 mps 687 mmHg 52%
07:00 +23°C° 0 mm 2 mps 688 mmHg 52%
08:00 +24°C° 0 mm 1 mps 689 mmHg 51%
09:00 +26°C° 0 mm 1 mps 690 mmHg 51%
10:00 +27°C° 0 mm 1 mps 690 mmHg 49%
11:00 +28°C° 0 mm 1 mps 690 mmHg 47%
12:00 +29°C° 0 mm 2 mps 690 mmHg 45%
13:00 +29°C° 0 mm 2 mps 689 mmHg 49%
14:00 +29°C° 0 mm 2 mps 689 mmHg 52%
15:00 +28°C° 0 mm 2 mps 688 mmHg 56%
16:00 +27°C° 0 mm 1 mps 688 mmHg 66%
17:00 +25°C° 0 mm 1 mps 688 mmHg 77%
18:00 +21°C° 0 mm 0 mps 688 mmHg 87%
19:00 +22°C° 0 mm 1 mps 688 mmHg 87%
20:00 +22°C° 0 mm 1 mps 689 mmHg 87%
21:00 +21°C° 0 mm 1 mps 689 mmHg 87%
22:00 +21°C° 0 mm 1 mps 689 mmHg 87%
23:00 +21°C° 0 mm 1 mps 689 mmHg 86%

Day after tomorrow, 27 January, Wednesday

Time Temperature Precipitation Wind Pressure Humidity
00:00 +21°C° 0 mm 1 mps 690 mmHg 85%
01:00 +21°C° 0 mm 1 mps 689 mmHg 84%
02:00 +21°C° 0 mm 1 mps 689 mmHg 84%
03:00 +20°C° 0 mm 1 mps 689 mmHg 84%
04:00 +20°C° 0 mm 1 mps 690 mmHg 83%
05:00 +20°C° 0 mm 1 mps 690 mmHg 81%
06:00 +20°C° 0 mm 1 mps 690 mmHg 80%
07:00 +21°C° 0 mm 1 mps 691 mmHg 77%
08:00 +23°C° 0 mm 1 mps 692 mmHg 74%
09:00 +24°C° 0 mm 1 mps 693 mmHg 71%
10:00 +25°C° 0.2 mm 2 mps 694 mmHg 73%
11:00 +25°C° 0.2 mm 2 mps 694 mmHg 75%
12:00 +25°C° 0.2 mm 3 mps 694 mmHg 77%
13:00 +23°C° 0.9 mm 4 mps 694 mmHg 78%
14:00 +23°C° 0.9 mm 4 mps 694 mmHg 79%
15:00 +22°C° 0.9 mm 4 mps 694 mmHg 80%
16:00 +20°C° 0.2 mm 5 mps 694 mmHg 79%
17:00 +19°C° 0.2 mm 5 mps 694 mmHg 78%
18:00 +17°C° 0.2 mm 5 mps 695 mmHg 77%
19:00 +16°C° 0 mm 5 mps 695 mmHg 77%
20:00 +17°C° 0 mm 4 mps 696 mmHg 77%
21:00 +15°C° 0 mm 4 mps 697 mmHg 76%
22:00 +15°C° 0 mm 4 mps 697 mmHg 76%
23:00 +15°C° 0 mm 4 mps 697 mmHg 76%

28 January, Thursday

Time Temperature Precipitation Wind Pressure Humidity
00:00 +15°C° 0 mm 4 mps 698 mmHg 76%
01:00 +15°C° 0 mm 4 mps 698 mmHg 75%
02:00 +14°C° 0 mm 3 mps 697 mmHg 75%
03:00 +14°C° 0 mm 3 mps 697 mmHg 75%
04:00 +14°C° 0 mm 3 mps 697 mmHg 74%
05:00 +14°C° 0 mm 3 mps 697 mmHg 73%
06:00 +14°C° 0 mm 3 mps 697 mmHg 72%
07:00 +14°C° 0 mm 3 mps 698 mmHg 71%
08:00 +14°C° 0 mm 3 mps 699 mmHg 69%
09:00 +15°C° 0 mm 2 mps 699 mmHg 68%
10:00 +17°C° 0 mm 2 mps 699 mmHg 63%
11:00 +18°C° 0 mm 3 mps 699 mmHg 59%
12:00 +19°C° 0 mm 3 mps 699 mmHg 55%
13:00 +20°C° 0 mm 3 mps 699 mmHg 55%
14:00 +20°C° 0 mm 3 mps 698 mmHg 54%
15:00 +20°C° 0 mm 3 mps 698 mmHg 54%
16:00 +19°C° 0 mm 3 mps 698 mmHg 60%
17:00 +17°C° 0 mm 2 mps 697 mmHg 66%
18:00 +16°C° 0 mm 2 mps 697 mmHg 72%
19:00 +16°C° 0 mm 2 mps 698 mmHg 73%
20:00 +15°C° 0 mm 2 mps 698 mmHg 73%
21:00 +15°C° 0 mm 1 mps 698 mmHg 74%
22:00 +15°C° 0 mm 1 mps 698 mmHg 74%
23:00 +15°C° 0 mm 1 mps 698 mmHg 74%

29 January, Friday

Time Temperature Precipitation Wind Pressure Humidity
00:00 +15°C° 0 mm 1 mps 698 mmHg 73%
01:00 +15°C° 0 mm 1 mps 698 mmHg 75%
02:00 +14°C° 0 mm 1 mps 697 mmHg 77%
03:00 +14°C° 0 mm 1 mps 697 mmHg 78%
04:00 +14°C° 0 mm 1 mps 696 mmHg 80%
05:00 +14°C° 0 mm 1 mps 696 mmHg 81%
06:00 +13°C° 0 mm 1 mps 696 mmHg 82%
07:00 +15°C° 0 mm 1 mps 696 mmHg 76%
08:00 +18°C° 0 mm 1 mps 697 mmHg 71%
09:00 +17°C° 0 mm 0 mps 698 mmHg 66%
10:00 +20°C° 0 mm 1 mps 698 mmHg 64%
11:00 +21°C° 0 mm 1 mps 697 mmHg 62%
12:00 +21°C° 0 mm 2 mps 697 mmHg 60%
13:00 +21°C° 0 mm 2 mps 696 mmHg 63%
14:00 +21°C° 0 mm 2 mps 696 mmHg 66%
15:00 +20°C° 0 mm 2 mps 695 mmHg 69%
16:00 +19°C° 0 mm 2 mps 695 mmHg 75%
17:00 +19°C° 0 mm 1 mps 694 mmHg 81%
18:00 +18°C° 0 mm 1 mps 694 mmHg 87%
19:00 +18°C° 0 mm 1 mps 694 mmHg 88%
20:00 +16°C° 0 mm 1 mps 695 mmHg 90%
21:00 +16°C° 0 mm 1 mps 695 mmHg 91%
22:00 +16°C° 0 mm 1 mps 695 mmHg 92%
23:00 +15°C° 0 mm 1 mps 694 mmHg 92%

30 January, Saturday

Time Temperature Precipitation Wind Pressure Humidity
00:00 +15°C° 0 mm 1 mps 694 mmHg 93%
01:00 +15°C° 0 mm 1 mps 694 mmHg 92%
02:00 +15°C° 0 mm 1 mps 693 mmHg 92%
03:00 +15°C° 0 mm 1 mps 693 mmHg 91%
04:00 +15°C° 0 mm 1 mps 693 mmHg 90%
05:00 +15°C° 0 mm 1 mps 692 mmHg 88%
06:00 +15°C° 0 mm 1 mps 692 mmHg 87%
07:00 +18°C° 0 mm 1 mps 693 mmHg 81%
08:00 +20°C° 0 mm 1 mps 694 mmHg 76%
09:00 +21°C° 0 mm 1 mps 694 mmHg 70%
10:00 +21°C° 0 mm 2 mps 694 mmHg 66%
11:00 +24°C° 0 mm 2 mps 694 mmHg 62%
12:00 +25°C° 0 mm 3 mps 693 mmHg 59%
13:00 +25°C° 0 mm 3 mps 693 mmHg 59%
14:00 +26°C° 0 mm 3 mps 692 mmHg 59%
15:00 +26°C° 0 mm 3 mps 691 mmHg 59%
16:00 +24°C° 0 mm 2 mps 691 mmHg 68%
17:00 +23°C° 0 mm 2 mps 691 mmHg 77%
18:00 +20°C° 0 mm 2 mps 690 mmHg 86%
19:00 +19°C° 0 mm 2 mps 691 mmHg 88%
20:00 +19°C° 0 mm 2 mps 691 mmHg 90%
21:00 +19°C° 0 mm 1 mps 692 mmHg 93%
22:00 +19°C° 0 mm 1 mps 692 mmHg 91%
23:00 +19°C° 0 mm 1 mps 692 mmHg 90%
Show more